When you browse on this site, cookies collect data to enhance your experience and personalize the content and advertising you see.
Visit our Privacy Policy to learn more. By continuing to use the site, you agree to this use of cookies and data.
  • In Denmark
  • List of Countries
  • For 7 days
  • Water Temperature
  • Satellite Maps
  • Weather Map
  • Weather Widgets
  • user-avatar
    Login

    Hourly Weather Czaczow

    Today, 19 February, Tuesday

    Time Temperature Precipitation Wind Pressure Humidity
    00:00 +2°C° 0 mm 2 mps 722 mmHg 80%
    01:00 +2°C° 0 mm 2 mps 722 mmHg 78%
    02:00 +2°C° 0 mm 2 mps 722 mmHg 78%
    03:00 +1°C° 0 mm 2 mps 721 mmHg 78%
    04:00 +1°C° 0 mm 2 mps 721 mmHg 78%
    05:00 +1°C° 0 mm 2 mps 721 mmHg 78%
    06:00 +1°C° 0 mm 2 mps 721 mmHg 79%
    07:00 +1°C° 0 mm 2 mps 721 mmHg 79%
    08:00 +3°C° 0 mm 2 mps 721 mmHg 75%
    09:00 +5°C° 0 mm 2 mps 721 mmHg 71%
    10:00 +7°C° 0 mm 2 mps 721 mmHg 67%
    11:00 +8°C° 0 mm 2 mps 721 mmHg 64%
    12:00 +9°C° 0 mm 2 mps 721 mmHg 62%
    13:00 +10°C° 0 mm 2 mps 720 mmHg 59%
    14:00 +10°C° 0 mm 2 mps 720 mmHg 63%
    15:00 +10°C° 0 mm 1 mps 720 mmHg 68%
    16:00 +9°C° 0 mm 1 mps 720 mmHg 72%
    17:00 +8°C° 0 mm 1 mps 720 mmHg 77%
    18:00 +6°C° 0 mm 1 mps 719 mmHg 82%
    19:00 +4°C° 0 mm 1 mps 719 mmHg 86%
    20:00 +4°C° 0 mm 1 mps 719 mmHg 85%
    21:00 +4°C° 0 mm 1 mps 719 mmHg 84%
    22:00 +3°C° 0 mm 1 mps 719 mmHg 83%
    23:00 +3°C° 0.1 mm 1 mps 719 mmHg 83%

    Tomorrow, 20 February, Wednesday

    Time Temperature Precipitation Wind Pressure Humidity
    00:00 +4°C° 0.1 mm 1 mps 719 mmHg 83%
    01:00 +4°C° 0.1 mm 1 mps 719 mmHg 82%
    02:00 +4°C° 0.4 mm 1 mps 719 mmHg 86%
    03:00 +3°C° 0.4 mm 2 mps 719 mmHg 89%
    04:00 +3°C° 0.4 mm 2 mps 719 mmHg 92%
    05:00 +2°C° 0 mm 2 mps 719 mmHg 92%
    06:00 +2°C° 0 mm 2 mps 720 mmHg 92%
    07:00 +2°C° 0 mm 2 mps 720 mmHg 91%
    08:00 +2°C° 0.1 mm 3 mps 720 mmHg 87%
    09:00 +3°C° 0.1 mm 4 mps 721 mmHg 82%
    10:00 +3°C° 0.1 mm 5 mps 721 mmHg 78%
    11:00 +3°C° 0.1 mm 5 mps 721 mmHg 75%
    12:00 +3°C° 0.1 mm 5 mps 721 mmHg 72%
    13:00 +3°C° 0.1 mm 5 mps 722 mmHg 70%
    14:00 +3°C° 0.1 mm 5 mps 722 mmHg 71%
    15:00 +4°C° 0.1 mm 4 mps 722 mmHg 72%
    16:00 +3°C° 0.1 mm 4 mps 722 mmHg 73%
    17:00 +3°C° 0 mm 3 mps 722 mmHg 76%
    18:00 +2°C° 0 mm 3 mps 722 mmHg 80%
    19:00 +1°C° 0 mm 3 mps 723 mmHg 84%
    20:00 +1°C° 0.1 mm 3 mps 723 mmHg 84%
    21:00 +1°C° 0.1 mm 3 mps 723 mmHg 85%
    22:00 +1°C° 0.1 mm 3 mps 724 mmHg 86%
    23:00 +2°C° 0 mm 2 mps 724 mmHg 86%

    Day after tomorrow, 21 February, Thursday

    Time Temperature Precipitation Wind Pressure Humidity
    00:00 +2°C° 0 mm 2 mps 724 mmHg 86%
    01:00 +2°C° 0 mm 2 mps 724 mmHg 87%
    02:00 +2°C° 0 mm 2 mps 724 mmHg 87%
    03:00 +2°C° 0 mm 2 mps 724 mmHg 86%
    04:00 +2°C° 0 mm 2 mps 724 mmHg 86%
    05:00 +2°C° 0 mm 2 mps 724 mmHg 86%
    06:00 +2°C° 0 mm 2 mps 724 mmHg 86%
    07:00 +3°C° 0 mm 1 mps 724 mmHg 85%
    08:00 +3°C° 0.1 mm 2 mps 724 mmHg 82%
    09:00 +4°C° 0.1 mm 2 mps 724 mmHg 79%
    10:00 +5°C° 0.1 mm 2 mps 724 mmHg 77%
    11:00 +5°C° 0.1 mm 2 mps 724 mmHg 76%
    12:00 +6°C° 0.1 mm 2 mps 724 mmHg 76%
    13:00 +6°C° 0.1 mm 2 mps 724 mmHg 76%
    14:00 +6°C° 0.4 mm 2 mps 723 mmHg 79%
    15:00 +5°C° 0.4 mm 2 mps 723 mmHg 83%
    16:00 +5°C° 0.4 mm 2 mps 723 mmHg 86%
    17:00 +4°C° 0.9 mm 2 mps 723 mmHg 86%
    18:00 +3°C° 0.9 mm 3 mps 723 mmHg 87%
    19:00 +3°C° 0.9 mm 3 mps 722 mmHg 87%
    20:00 +3°C° 0.3 mm 3 mps 722 mmHg 87%
    21:00 +3°C° 0.3 mm 3 mps 722 mmHg 87%
    22:00 +3°C° 0.3 mm 3 mps 722 mmHg 87%
    23:00 +3°C° 0.4 mm 3 mps 721 mmHg 89%

    22 February, Friday

    Time Temperature Precipitation Wind Pressure Humidity
    00:00 +3°C° 0.4 mm 3 mps 721 mmHg 91%
    01:00 +3°C° 0.4 mm 3 mps 721 mmHg 93%
    02:00 +3°C° 0.8 mm 3 mps 721 mmHg 94%
    03:00 +3°C° 0.8 mm 3 mps 721 mmHg 94%
    04:00 +3°C° 0.8 mm 4 mps 720 mmHg 95%
    05:00 +3°C° 1 mm 4 mps 721 mmHg 95%
    06:00 +2°C° 1 mm 5 mps 721 mmHg 95%
    07:00 +2°C° 1 mm 5 mps 722 mmHg 95%
    08:00 0°C° 0.7 mm 5 mps 723 mmHg 94%
    09:00 -1°C° 0.7 mm 5 mps 724 mmHg 92%
    10:00 -4°C° 0.7 mm 5 mps 724 mmHg 91%
    11:00 -4°C° 0.2 mm 5 mps 725 mmHg 87%
    12:00 -5°C° 0.2 mm 5 mps 726 mmHg 83%
    13:00 -5°C° 0.2 mm 5 mps 727 mmHg 79%
    14:00 -5°C° 0 mm 5 mps 728 mmHg 76%
    15:00 -5°C° 0 mm 5 mps 728 mmHg 73%
    16:00 -5°C° 0 mm 5 mps 729 mmHg 70%
    17:00 -6°C° 0 mm 5 mps 730 mmHg 73%
    18:00 -7°C° 0 mm 4 mps 730 mmHg 76%
    19:00 -7°C° 0 mm 3 mps 731 mmHg 79%
    20:00 -7°C° 0 mm 3 mps 731 mmHg 79%
    21:00 -6°C° 0 mm 2 mps 732 mmHg 79%
    22:00 -6°C° 0 mm 1 mps 732 mmHg 79%
    23:00 -7°C° 0 mm 2 mps 732 mmHg 78%

    23 February, Saturday

    Time Temperature Precipitation Wind Pressure Humidity
    00:00 -7°C° 0 mm 2 mps 732 mmHg 77%
    01:00 -7°C° 0 mm 2 mps 732 mmHg 76%
    02:00 -7°C° 0 mm 2 mps 732 mmHg 75%
    03:00 -7°C° 0 mm 2 mps 732 mmHg 74%
    04:00 -7°C° 0 mm 2 mps 732 mmHg 73%
    05:00 -8°C° 0 mm 3 mps 732 mmHg 74%
    06:00 -8°C° 0 mm 3 mps 732 mmHg 74%
    07:00 -8°C° 0 mm 3 mps 732 mmHg 75%
    08:00 -7°C° 0 mm 3 mps 732 mmHg 68%
    09:00 -6°C° 0 mm 3 mps 733 mmHg 61%
    10:00 -5°C° 0 mm 3 mps 733 mmHg 54%
    11:00 -4°C° 0 mm 3 mps 733 mmHg 50%
    12:00 -4°C° 0 mm 3 mps 732 mmHg 46%
    13:00 -2°C° 0 mm 3 mps 732 mmHg 42%
    14:00 -2°C° 0 mm 3 mps 732 mmHg 43%
    15:00 -4°C° 0 mm 3 mps 732 mmHg 44%
    16:00 -4°C° 0 mm 3 mps 731 mmHg 44%
    17:00 -3°C° 0 mm 2 mps 732 mmHg 47%
    18:00 -4°C° 0 mm 2 mps 732 mmHg 50%
    19:00 -4°C° 0 mm 2 mps 732 mmHg 54%
    20:00 -4°C° 0 mm 2 mps 732 mmHg 54%
    21:00 -4°C° 0 mm 2 mps 732 mmHg 54%
    22:00 -4°C° 0 mm 2 mps 732 mmHg 55%
    23:00 -3°C° 0 mm 1 mps 732 mmHg 57%

    24 February, Sunday

    Time Temperature Precipitation Wind Pressure Humidity
    00:00 -3°C° 0 mm 1 mps 732 mmHg 59%
    01:00 -3°C° 0 mm 1 mps 731 mmHg 61%
    02:00 -3°C° 0 mm 1 mps 731 mmHg 63%
    03:00 -4°C° 0 mm 1 mps 731 mmHg 65%
    04:00 -4°C° 0 mm 1 mps 731 mmHg 67%
    05:00 -4°C° 0 mm 1 mps 732 mmHg 69%
    06:00 -4°C° 0 mm 1 mps 732 mmHg 71%
    07:00 -4°C° 0 mm 1 mps 732 mmHg 72%
    08:00 -3°C° 0 mm 1 mps 732 mmHg 66%
    09:00 -4°C° 0 mm 2 mps 733 mmHg 59%
    10:00 -3°C° 0 mm 2 mps 733 mmHg 53%
    11:00 -2°C° 0 mm 2 mps 733 mmHg 51%
    12:00 -2°C° 0 mm 2 mps 733 mmHg 48%
    13:00 -1°C° 0 mm 2 mps 733 mmHg 46%
    14:00 -1°C° 0 mm 2 mps 733 mmHg 48%
    15:00 -1°C° 0 mm 2 mps 733 mmHg 50%
    16:00 -2°C° 0 mm 2 mps 732 mmHg 51%
    17:00 -3°C° 0 mm 2 mps 733 mmHg 57%
    18:00 -2°C° 0 mm 1 mps 733 mmHg 62%
    19:00 -3°C° 0 mm 1 mps 733 mmHg 67%
    20:00 -3°C° 0 mm 1 mps 733 mmHg 68%
    21:00 -3°C° 0 mm 1 mps 733 mmHg 69%
    22:00 -3°C° 0 mm 1 mps 733 mmHg 70%
    23:00 -3°C° 0 mm 1 mps 733 mmHg 70%
    Show more